COSMOS 2580

导读

COSMOS 2580(宇宙2580)是独联体(CIS,实际为俄罗斯航天)于2024年12月4日发射的编号卫星,属于俄罗斯经典"宇宙"系列卫星序列。"宇宙"系列多承担军事侦察、空间技术试验等航天任务,该卫星入轨后已在轨运行超15个月,延续了独联体/俄罗斯持续推进航天部署的节奏,服务航天技术验证与空间态势感知相关领域。

Basic Information
目录编号:
62216
目录名称:
COSMOS 2580
国际标识:
2024-230A
轨道中心:
EARTH
卫星名称:
COSMOS 2580
卫星全名:
COSMOS 2580
卫星状态:
在轨 (已飞行649 天)
发射日期:
2024-12-04 UTC
国别 :
俄罗斯(独联体) (CIS)
星等 :
--
This satellite is enrolled in the Space Conjunction Data Service (SCDS) and the current flight risk assessment level is: No High Risk
Orbit Information
数据来源 国际轨道数据 AOE轨道数据
星历时间 2026-09-14T05:18:53+0800
8小时前
查看轨道信息
2026-09-12T01:00:00+0800
2天前
查看轨道信息
半长轴 7283.462km 7283.465km
偏心率 0.0005478 0.0005585
轨道倾角 67.148° 67.150°
近地点辐角 265.719° 269.493°
升交点赤经 195.253° 200.550°
平近点角 94.327° 292.208°
近地点 901.335km 901.26km
远地点 909.315km 909.396km
周期 103.102分钟 103.102分钟
每日圈数 13.966771 13.966762
Detailed Information
使用方式:
暂无
2D Orbit Map
3D Orbit Map
Orbit Altitude Analysis Chart
Orbit Inclination Analysis Chart
Orbit Comprehensive Analysis Chart
View Comprehensive Chart
Conjunction Data List
Event ID Objects TCA Miss Dist (km) Collision Risk Probability Collision Risk Index (CRI) Action
CDM_260915-194900-417706-221624
2026-09-15T
19:49:19+0000
1.749 km
极远距离
3.93119E-6 低风险 0.47
Miss Distance Evolution Trend with All Objects Subscribe to Flight Safety Assessment
Collision Probability Evolution Trend with All Objects Subscribe to Flight Safety Assessment